This is the latest recevied weather packets stored in our database for station/object N9DMT-13. If no packets are shown the sender has not sent any weather packets the latest 10 day(s).
| Time | Temp. | Humidity | Pressure | Rain* | Wind** | Luminosity | Snow |
|---|---|---|---|---|---|---|---|
| 1778299297 | 8.89° C | 75% | 970.4 hPa | 0 mm | - | - | - |
| 1778298995 | 8.89° C | 75% | 970.5 hPa | 0 mm | - | - | - |
| 1778298694 | 9.44° C | 76% | 970.5 hPa | 0 mm | - | - | - |
| 1778298393 | 9.44° C | 75% | 970.6 hPa | 0 mm | - | - | - |
| 1778298092 | 9.44° C | 75% | 970.7 hPa | 0 mm | - | - | - |
| 1778297791 | 10° C | 73% | 970.6 hPa | 0 mm | - | - | - |
| 1778297491 | 10° C | 73% | 970.7 hPa | 0 mm | - | - | - |
| 1778297190 | 10° C | 74% | 970.5 hPa | 0 mm | - | - | - |
| 1778296889 | 10° C | 72% | 970.8 hPa | 0 mm | - | - | - |
| 1778296588 | 10° C | 72% | 970.9 hPa | 0 mm | - | - | - |
| 1778296288 | 10° C | 71% | 970.7 hPa | 0 mm | - | - | - |
| 1778295986 | 10.56° C | 69% | 970.9 hPa | 0 mm | - | - | - |
| 1778295685 | 10.56° C | 67% | 970.8 hPa | 0 mm | - | - | - |
| 1778295384 | 10.56° C | 69% | 970.9 hPa | 0 mm | - | - | - |
| 1778295083 | 10.56° C | 69% | 971.1 hPa | 0 mm | - | - | - |
| 1778294783 | 10.56° C | 70% | 970.8 hPa | 0 mm | - | - | - |
| 1778294482 | 10.56° C | 71% | 970.9 hPa | 0 mm | - | - | - |
| 1778294181 | 10.56° C | 70% | 971 hPa | 0 mm | - | - | - |
| 1778293880 | 10.56° C | 67% | 970.6 hPa | 0 mm | - | - | - |
| 1778293579 | 10.56° C | 69% | 970.8 hPa | 0 mm | - | - | - |
| 1778293279 | 10.56° C | 70% | 970.9 hPa | 0 mm | - | - | - |
| 1778292977 | 10.56° C | 69% | 970.7 hPa | 0 mm | - | - | - |
| 1778292677 | 11.11° C | 70% | 970.8 hPa | 0 mm | - | - | - |
| 1778292376 | 11.11° C | 67% | 970.8 hPa | 0 mm | - | - | - |
| 1778291774 | 11.67° C | 60% | 970.8 hPa | 0 mm | - | - | - |
* Rain latest hour (hover to see other rain measurements)
** Current wind speed in m/s (hover to see current wind gust speed)